When you browse on this site, cookies collect data to enhance your experience and personalize the content and advertising you see.
Visit our Privacy Policy to learn more. By continuing to use the site, you agree to this use of cookies and data.
  • In Romania
  • List of Countries
  • For 7 days
  • Water Temperature
  • Satellite Maps
  • Weather Map
  • Weather Widgets
  • user-avatar
    Login

    Hourly Weather Senkovo

    Today, 24 March, Sunday

    Time Temperature Precipitation Wind Pressure Humidity
    00:00 -1°C° 0.7 mm 4 mps 741 mmHg 80%
    01:00 +1°C° 0.7 mm 3 mps 740 mmHg 80%
    02:00 +1°C° 0 mm 3 mps 739 mmHg 82%
    03:00 +1°C° 0.3 mm 3 mps 738 mmHg 83%
    04:00 +1°C° 0.3 mm 3 mps 738 mmHg 84%
    05:00 +1°C° 0.3 mm 3 mps 737 mmHg 85%
    06:00 +1°C° 0 mm 3 mps 737 mmHg 86%
    07:00 0°C° 0 mm 4 mps 737 mmHg 87%
    08:00 +1°C° 0 mm 4 mps 737 mmHg 88%
    09:00 +1°C° 0 mm 4 mps 736 mmHg 83%
    10:00 +2°C° 0 mm 5 mps 736 mmHg 78%
    11:00 +3°C° 0 mm 5 mps 736 mmHg 73%
    12:00 +3°C° 0.2 mm 5 mps 736 mmHg 67%
    13:00 +3°C° 0.2 mm 6 mps 736 mmHg 62%
    14:00 +5°C° 0 mm 5 mps 736 mmHg 54%
    15:00 +5°C° 0 mm 4 mps 736 mmHg 56%
    16:00 +4°C° 0 mm 4 mps 736 mmHg 59%
    17:00 +3°C° 0 mm 3 mps 736 mmHg 62%
    18:00 +2°C° 0 mm 3 mps 736 mmHg 65%
    19:00 +1°C° 0 mm 3 mps 737 mmHg 68%
    20:00 0°C° 0 mm 3 mps 737 mmHg 72%
    21:00 -1°C° 0 mm 3 mps 737 mmHg 73%
    22:00 -1°C° 0 mm 3 mps 737 mmHg 75%
    23:00 -2°C° 0 mm 2 mps 737 mmHg 77%

    Tomorrow, 25 March, Monday

    Time Temperature Precipitation Wind Pressure Humidity
    00:00 -2°C° 0 mm 2 mps 737 mmHg 78%
    01:00 -2°C° 0 mm 2 mps 737 mmHg 80%
    02:00 -3°C° 0 mm 2 mps 737 mmHg 81%
    03:00 -3°C° 0 mm 2 mps 736 mmHg 82%
    04:00 -3°C° 0 mm 2 mps 736 mmHg 83%
    05:00 -4°C° 0 mm 2 mps 736 mmHg 84%
    06:00 -3°C° 0 mm 2 mps 736 mmHg 79%
    07:00 -2°C° 0 mm 2 mps 736 mmHg 74%
    08:00 0°C° 0 mm 3 mps 736 mmHg 69%
    09:00 +1°C° 0 mm 3 mps 735 mmHg 62%
    10:00 +3°C° 0 mm 3 mps 735 mmHg 55%
    11:00 +4°C° 0 mm 4 mps 735 mmHg 48%
    12:00 +5°C° 0 mm 4 mps 735 mmHg 47%
    13:00 +5°C° 0 mm 3 mps 734 mmHg 45%
    14:00 +7°C° 0 mm 3 mps 734 mmHg 44%
    15:00 +5°C° 0 mm 3 mps 734 mmHg 50%
    16:00 +5°C° 0 mm 2 mps 734 mmHg 56%
    17:00 +4°C° 0 mm 2 mps 733 mmHg 62%
    18:00 +3°C° 0 mm 2 mps 733 mmHg 67%
    19:00 +2°C° 0 mm 2 mps 733 mmHg 72%
    20:00 -1°C° 0 mm 2 mps 733 mmHg 78%
    21:00 -1°C° 0 mm 2 mps 733 mmHg 78%
    22:00 -1°C° 0 mm 2 mps 733 mmHg 79%
    23:00 -2°C° 0 mm 2 mps 732 mmHg 80%

    Day after tomorrow, 26 March, Tuesday

    Time Temperature Precipitation Wind Pressure Humidity
    00:00 -2°C° 0 mm 2 mps 732 mmHg 81%
    01:00 -2°C° 0 mm 2 mps 732 mmHg 82%
    02:00 -2°C° 0 mm 2 mps 732 mmHg 83%
    03:00 -2°C° 0.1 mm 2 mps 732 mmHg 86%
    04:00 -1°C° 0.1 mm 2 mps 732 mmHg 89%
    05:00 -1°C° 0.1 mm 2 mps 731 mmHg 91%
    06:00 -1°C° 0.2 mm 3 mps 731 mmHg 90%
    07:00 -1°C° 0.2 mm 3 mps 732 mmHg 88%
    08:00 -2°C° 0.2 mm 4 mps 732 mmHg 86%
    09:00 -2°C° 0.1 mm 4 mps 732 mmHg 80%
    10:00 -2°C° 0.1 mm 4 mps 732 mmHg 73%
    11:00 -1°C° 0.1 mm 4 mps 732 mmHg 67%
    12:00 -1°C° 0 mm 4 mps 733 mmHg 62%
    13:00 0°C° 0 mm 4 mps 733 mmHg 56%
    14:00 0°C° 0 mm 4 mps 733 mmHg 50%
    15:00 +1°C° 0 mm 3 mps 733 mmHg 52%
    16:00 0°C° 0 mm 3 mps 733 mmHg 54%
    17:00 +1°C° 0 mm 2 mps 733 mmHg 56%
    18:00 -1°C° 0 mm 2 mps 733 mmHg 62%
    19:00 -2°C° 0 mm 2 mps 734 mmHg 68%
    20:00 -2°C° 0 mm 1 mps 734 mmHg 74%
    21:00 -2°C° 0 mm 1 mps 734 mmHg 76%
    22:00 -4°C° 0 mm 2 mps 735 mmHg 79%
    23:00 -5°C° 0 mm 2 mps 735 mmHg 82%

    27 March, Wednesday

    Time Temperature Precipitation Wind Pressure Humidity
    00:00 -5°C° 0 mm 2 mps 735 mmHg 82%
    01:00 -5°C° 0 mm 2 mps 736 mmHg 82%
    02:00 -5°C° 0 mm 2 mps 736 mmHg 82%
    03:00 -6°C° 0 mm 3 mps 736 mmHg 83%
    04:00 -6°C° 0 mm 3 mps 737 mmHg 84%
    05:00 -5°C° 0 mm 3 mps 737 mmHg 84%
    06:00 -5°C° 0.1 mm 4 mps 738 mmHg 79%
    07:00 -4°C° 0.1 mm 4 mps 739 mmHg 75%
    08:00 -4°C° 0.1 mm 5 mps 739 mmHg 70%
    09:00 -4°C° 0 mm 5 mps 740 mmHg 67%
    10:00 -2°C° 0 mm 5 mps 740 mmHg 64%
    11:00 -2°C° 0 mm 5 mps 741 mmHg 61%
    12:00 -2°C° 0 mm 5 mps 741 mmHg 59%
    13:00 -1°C° 0 mm 5 mps 742 mmHg 57%
    14:00 -1°C° 0 mm 5 mps 742 mmHg 55%
    15:00 -1°C° 0.1 mm 5 mps 743 mmHg 56%
    16:00 -2°C° 0.1 mm 5 mps 744 mmHg 57%
    17:00 -2°C° 0.1 mm 4 mps 744 mmHg 58%
    18:00 -3°C° 0 mm 4 mps 745 mmHg 64%
    19:00 -2°C° 0 mm 3 mps 745 mmHg 69%
    20:00 -3°C° 0 mm 2 mps 746 mmHg 75%
    21:00 -4°C° 0 mm 2 mps 746 mmHg 77%
    22:00 -4°C° 0 mm 2 mps 747 mmHg 80%
    23:00 -4°C° 0 mm 2 mps 747 mmHg 82%

    28 March, Thursday

    Time Temperature Precipitation Wind Pressure Humidity
    00:00 -5°C° 0 mm 2 mps 748 mmHg 83%
    01:00 -5°C° 0 mm 2 mps 748 mmHg 83%
    02:00 -5°C° 0 mm 2 mps 749 mmHg 84%
    03:00 -3°C° 0 mm 1 mps 749 mmHg 84%
    04:00 -4°C° 0 mm 1 mps 749 mmHg 84%
    05:00 -4°C° 0 mm 1 mps 750 mmHg 84%
    06:00 -2°C° 0 mm 1 mps 750 mmHg 78%
    07:00 -3°C° 0 mm 2 mps 750 mmHg 72%
    08:00 -2°C° 0 mm 2 mps 751 mmHg 65%
    09:00 -1°C° 0 mm 2 mps 751 mmHg 58%
    10:00 +2°C° 0 mm 2 mps 751 mmHg 50%
    11:00 +2°C° 0 mm 3 mps 751 mmHg 43%
    12:00 +2°C° 0 mm 3 mps 751 mmHg 44%
    13:00 +3°C° 0 mm 3 mps 751 mmHg 45%
    14:00 +4°C° 0 mm 4 mps 750 mmHg 45%
    15:00 +3°C° 0 mm 3 mps 750 mmHg 52%
    16:00 +3°C° 0 mm 3 mps 750 mmHg 59%
    17:00 +2°C° 0 mm 3 mps 749 mmHg 66%
    18:00 +2°C° 0 mm 3 mps 749 mmHg 73%
    19:00 +2°C° 0 mm 2 mps 749 mmHg 79%
    20:00 +1°C° 0 mm 2 mps 749 mmHg 86%
    21:00 -1°C° 0 mm 2 mps 749 mmHg 88%
    22:00 -1°C° 0 mm 3 mps 749 mmHg 90%
    23:00 -1°C° 0 mm 3 mps 749 mmHg 92%

    29 March, Friday

    Time Temperature Precipitation Wind Pressure Humidity
    00:00 -1°C° 0 mm 3 mps 749 mmHg 93%
    01:00 -1°C° 0 mm 3 mps 748 mmHg 93%
    02:00 -1°C° 0 mm 3 mps 748 mmHg 94%
    03:00 -1°C° 0 mm 3 mps 748 mmHg 92%
    04:00 -1°C° 0 mm 4 mps 748 mmHg 91%
    05:00 -1°C° 0 mm 4 mps 748 mmHg 89%
    06:00 0°C° 0 mm 4 mps 748 mmHg 86%
    07:00 0°C° 0 mm 4 mps 748 mmHg 83%
    08:00 +1°C° 0 mm 4 mps 748 mmHg 80%
    09:00 +3°C° 0 mm 4 mps 748 mmHg 75%
    10:00 +5°C° 0 mm 4 mps 748 mmHg 70%
    11:00 +7°C° 0 mm 4 mps 748 mmHg 66%
    12:00 +7°C° 0 mm 4 mps 747 mmHg 64%
    13:00 +8°C° 0 mm 4 mps 747 mmHg 63%
    14:00 +10°C° 0 mm 4 mps 747 mmHg 61%
    15:00 +10°C° 0 mm 4 mps 747 mmHg 64%
    16:00 +9°C° 0 mm 3 mps 746 mmHg 68%
    17:00 +9°C° 0 mm 3 mps 746 mmHg 71%
    18:00 +7°C° 0 mm 3 mps 746 mmHg 77%
    19:00 +5°C° 0 mm 3 mps 746 mmHg 83%
    20:00 +5°C° 0 mm 2 mps 746 mmHg 89%
    21:00 +3°C° 0 mm 3 mps 746 mmHg 89%
    22:00 +3°C° 0 mm 3 mps 745 mmHg 90%
    23:00 +2°C° 0 mm 3 mps 745 mmHg 90%
    Show more